Regional Weather Roundup
Issued by NWS

Home | Current Version | Previous Version | Graphics & Text | Print | Product List | Glossary On
Versions: 1 2 3 4 5 6 7 8 9 10 11 12 13 14 15 16 17 18 19 20 21 22 23 24 25 26 27 28 29 30 31 32 33 34 35 36 37 38 39 40 41 42 43 44 45 46 47 48 49 50
000
ASUS43 KOAX 230010
RWRNE

WEATHER ROUNDUP FOR NEBRASKA
NATIONAL WEATHER SERVICE OMAHA NE
600 PM CST SUN JAN 22 2017

NOTES: SATELLITE DATA IS BEING USED TO AUGMENT CLOUD COVER ABOVE
       12000 FEET.
       "FAIR" INDICATES FEW OR NO CLOUDS BELOW 12,000 FEET WITH NO
       SIGNIFICANT WEATHER AND/OR OBSTRUCTIONS TO VISIBILITY.

  * THESE STATIONS DO NOT REPORT WEATHER SUCH AS RAIN...SNOW OR FOG.

NEZ001>004-019>022-054>056-230100-
NEBRASKA PANHANDLE

CITY           SKY/WX    TMP DP  RH WIND       PRES   REMARKS
SCOTTSBLUFF    CLEAR     37  18  46 W8        29.87S WCI  31
6HR MIN TEMP:  37; 6HR MAX TEMP:  46;

ALLIANCE       CLEAR     36  20  52 W7        29.84F WCI  30
6HR MIN TEMP:  36; 6HR MAX TEMP:  46;

CHADRON        CLEAR     35  26  69 W3        29.85F
6HR MIN TEMP:  34; 6HR MAX TEMP:  39;

KIMBALL        CLEAR     35  21  58 N9        29.87F WCI  27
SIDNEY         CLEAR     35  18  49 NW9       29.88S WCI  28
6HR MIN TEMP:  35; 6HR MAX TEMP:  45;

$$

NEZ057>060-069>072-079>082-230100-
SOUTHWEST NEBRASKA

CITY           SKY/WX    TMP DP  RH WIND       PRES   REMARKS
NORTH PLATTE   CLEAR     36  25  64 NW6       29.87R WCI  31
6HR MIN TEMP:  36; 6HR MAX TEMP:  51;

IMPERIAL       CLEAR     40  24  53 NW5       29.89S
6HR MIN TEMP:  40; 6HR MAX TEMP:  48;

LEXINGTON      CLEAR     40  30  69 W7        29.86S WCI  35
MCCOOK         CLEAR     42  28  57 NW7       29.89R
6HR MIN TEMP:  42; 6HR MAX TEMP:  51;

OGALLALA       CLEAR     37  28  69 NW8       29.88S WCI  31
$$

NEZ005>010-023>029-035>040-094-230100-
NORTH CENTRAL NEBRASKA

CITY           SKY/WX    TMP DP  RH WIND       PRES   REMARKS
VALENTINE      CLEAR     35  24  64 NW5       29.87S WCI  31
6HR MIN TEMP:  35; 6HR MAX TEMP:  43;

AINSWORTH      CLEAR     36  27  69 NW6       29.87R WCI  31
BROKEN BOW     CLEAR     38  28  67 N8        29.85R WCI  32
6HR MIN TEMP:  38; 6HR MAX TEMP:  49;

O`NEILL        CLEAR     36  29  76 NW9       29.87R WCI  29
ORD            CLEAR     37  27  67 NW5       29.85R WCI  33
6HR MIN TEMP:  37; 6HR MAX TEMP:  49;

THEDFORD       CLEAR     38  26  59 N3        29.87R
$$

NEZ041-046>049-061>064-073>077-083>087-230100-
SOUTH CENTRAL NEBRASKA

CITY           SKY/WX    TMP DP  RH WIND       PRES   REMARKS
GRAND ISLAND   CLEAR     39  31  72 NW6       29.86R WCI  35
6HR MIN TEMP:  39; 6HR MAX TEMP:  48;

AURORA         CLEAR     37  32  81 NW5       29.86R WCI  34
HASTINGS       CLEAR     39  32  76 NW6       29.87R WCI  35
6HR MIN TEMP:  39; 6HR MAX TEMP:  48;

HEBRON         CLEAR     38  32  78 CALM      29.88R
HOLDREGE       CLEAR     41  31  68 W3        29.86S
KEARNEY *      CLEAR     45  30  57 CALM      29.86S
YORK           CLEAR     37  32  81 CALM      29.86R
$$

NEZ011>018-030>034-042>045-230100-
NORTHEAST NEBRASKA

CITY           SKY/WX    TMP DP  RH WIND       PRES   REMARKS
NORFOLK        CLEAR     35  27  72 NW7       29.84R WCI  29
6HR MIN TEMP:  31; 6HR MAX TEMP:  43;

ALBION         CLEAR     36  19  49 NW5       29.86R WCI  32
BLAIR          PTCLDY    35  33  90 NW5       29.84R WCI  31
FREMONT        PTCLDY    35  33  93 CALM      29.85R
TEKAMAH        PTCLDY    34  30  85 N8        29.85R WCI  27
6HR MIN TEMP:  34; 6HR MAX TEMP:  40;

WAYNE          CLEAR     35  31  87 NW6       29.85R WCI  30
$$

NEZ050>053-065>068-078-088>093-230100-
SOUTHEAST NEBRASKA

CITY           SKY/WX    TMP DP  RH WIND       PRES   REMARKS
LINCOLN        CLEAR     36  31  82 NW3       29.88R
6HR MIN TEMP:  35; 6HR MAX TEMP:  41;

OMAHA EPPLEY   PTCLDY    34  29  82 NW7       29.85R WCI  28
6HR MIN TEMP:  33; 6HR MAX TEMP:  40;

BEATRICE       CLEAR     33  31  95 NW6       29.87R WCI  27
FALLS CITY     CLOUDY    38  34  85 NW9       29.84R WCI  31
6HR MIN TEMP:  34; 6HR MAX TEMP:  39;

NEBRASKA CITY  CLEAR     34  33  96 NW7       29.84R WCI  28
PLATTSMOUTH    MOCLDY    35  31  87 W8        29.84R WCI  28
$$

NEZ044-045-051>053-067-230100-
OMAHA AREA

CITY           SKY/WX    TMP DP  RH WIND       PRES   REMARKS
OMAHA EPPLEY   PTCLDY    34  29  82 NW7       29.85R WCI  28
6HR MIN TEMP:  33; 6HR MAX TEMP:  40;

BLAIR          PTCLDY    35  33  90 NW5       29.84R WCI  31
FREMONT        PTCLDY    35  33  93 CALM      29.85R
MILLARD        MOCLDY    39  35  85 NW5       29.85R
OFFUTT AFB     CLEAR     35  35 100 NW8       29.84R WCI  28
PLATTSMOUTH    MOCLDY    35  31  87 W8        29.84R WCI  28
WAHOO          FAIR      34  32  90 W3        29.85R
$$




USA.gov is the U.S. government's official web portal to all federal, state and local government web resources and services.